FREGAT R/B, 40297

Orbit data source: Space-Track

FREGAT R/B, 40297 is space debris in HEO originally from a launch on Thu, 30 Oct 2014 UTC launched from the Plesetsk Missile And Space Complex (PKMTR). Debris objects in space refer to the collection of defunct objects orbiting the Earth. Examples of debris include non-operational satellites, rocket bodies, and fragments generated from explosions, collisions, or faulty payload assembly.

Loading next visibility...
Identifier
40297, 2014-069B
Orbit
HEO
Country
Flag of CISCIS
Related business
Manufacturer
Lavochkin
Mission
Spacecraft
Bus & Motor
FREGAT, Unknown motor
Mass
1,000 kg wet, 1,000 kg dry
Launch date (UTC)
2014-10-30 (11 years ago)
Launch vehicle
Unknown
Launch site
Plesetsk Missile And Space Complex (PKMTR)
Object type
Payload
Rocket body
Debris
Shape & HBR
Irr, 1.6 m
Radar Cross Section
11.055 m², Large (>1 m²)

Expand to show TLE details & history
Last TLE update: 5 days ago

TLE from 5 days ago
0 FREGAT R/B
1 40297U 14069B   25256.84521482 -.00001031  00000-0  00000-0 0  9992
2 40297  63.6768 233.0254 6745766 272.1955  18.1632  2.00562132 79672
Epoch: 2025-09-13T20:17Z
TLE epoch observation values (Epoch: 2025-09-13T20:17:06.56Z)
Latitude
0.00007°
Longitude
-64.32913°
Altitude
7,732.499 km
Speed
6.442 km/s
True Right ascension
15h 32m 05s
True Declination
0° 00' 00"
Sunlit
Object was in daylight at epoch
Visualization orbit readout
Latitude
Unknown
Longitude
Unknown
Altitude
Unknown
Speed
Unknown
Apparent Right ascension
Unknown
Apparent Declination
Unknown
Sunlit
N/A
Visualization observer readout
Local Sidereal Time
23:08:17
Azimuth
Unknown
Elevation
Unknown
Doppler factor
Unknown
Orbital elements
Apogee altitude
38,098.03 km
Perigee altitude
2,264.994 km
Semi-major axis
26,559.649 km
Eccentricity
0.67458
Inclination
63.6768°
RAAN
233.0254°
Arg. of periapsis
272.1955°
True anomaly
87.74519°
Mean anomaly
18.1632°
Eccentric anomaly
45.93592°
Mean motion
0.50143 °/min
Orbital period
717.95 mins
BSTAR
0
Loading maneuver chart data...
Computing Atmospheric mass density...
Loading historical data...
Loading historical data...
Loading historical data...
Loading historical data...
Loading historical data...
Loading historical data...
Loading historical data...
Other satellites on launch #69 in the year 2014 (2014-10-30 UTC)

Documentation

Showing up to 5 results
|